Scottsdale, AZ

10:51 AM MST on July 20, 2017 (GMT -0700)
Scottsdale

Weather History for KSDL - January, 2014

Change the Weather History Date:

Friday, January 24, 2014

  Actual Average Record
Temperature  
Mean Temperature 61 °F -  
Max Temperature 68 °F 64 °F 75 °F (2003)
Min Temperature 54 °F 44 °F 36 °F (2002)
Degree Days  
Heating Degree Days 4    
Growing Degree Days 11 (Base 50)    
Moisture  
Dew Point 22 °F    
Average Humidity 22    
Maximum Humidity 35    
Minimum Humidity 15    
Precipitation  
Precipitation 0.00 in - - ()
Sea Level Pressure  
Sea Level Pressure 30.22 in    
Wind  
Wind Speed 4 mph (SSE)    
Max Wind Speed 9 mph    
Max Gust Speed -    
Visibility 10 miles    
Events      
Averages and records for this station are not official NWS values.
T = Trace of Precipitation, MM = Missing Value Source: NWS Daily Summary

Daily Weather History Graph

Daily Weather History Graph

Search for Another Location

Airport or City:

Trip Planner

Search our weather history database for the weather conditions in past years. The results will help you decide how hot, cold, wet, or windy it might be!

Date:

Astronomy

Jan. 24, 2014 Rise Set
Actual Time 7:28 AM MST 5:51 PM MST
Civil Twilight 7:02 AM MST 6:17 PM MST
Nautical Twilight 6:32 AM MST 6:47 PM MST
Astronomical Twilight 6:02 AM MST 7:17 PM MST
Moon 1:03 AM MST (1/24) 12:09 PM MST (1/24)
Length of Visible Light 11h 15m
Length of Day
10h 22m
Last Quarter, 44% of the Moon is Illuminated
Jan 24
Last Quarter
Jan 30
New
Feb 6
First Quarter
Feb 14
Full
Feb 22
Last Quarter

Hourly Weather History & Observations

Time (MST) Temp. Dew Point Humidity Pressure Visibility Wind Dir Wind Speed Gust Speed Precip Events Conditions
12:53 AM 64.9 °F 16.0 °F 15% 30.14 in 10.0 mi East 5.8 mph - N/A   Clear
1:53 AM 64.0 °F 16.0 °F 16% 30.16 in 10.0 mi East 6.9 mph - N/A   Clear
2:53 AM 64.0 °F 17.1 °F 16% 30.17 in 10.0 mi NNE 9.2 mph - N/A   Clear
3:53 AM 61.0 °F 19.0 °F 20% 30.17 in 10.0 mi Calm Calm - N/A   Clear
4:53 AM 61.0 °F 18.0 °F 19% 30.18 in 10.0 mi Calm Calm - N/A   Clear
5:53 AM 57.0 °F 21.9 °F 26% 30.21 in 10.0 mi Calm Calm - N/A   Clear
6:53 AM 54.0 °F 23.0 °F 30% 30.23 in 10.0 mi South 3.5 mph - N/A   Clear
7:53 AM 55.0 °F 23.0 °F 29% 30.26 in 10.0 mi West 3.5 mph - N/A   Clear
8:53 AM 57.0 °F 23.0 °F 27% 30.27 in 10.0 mi West 3.5 mph - N/A   Clear
9:53 AM 59.0 °F 26.1 °F 28% 30.29 in 10.0 mi Calm Calm - N/A   Clear
10:53 AM 63.0 °F 23.0 °F 22% 30.29 in 10.0 mi West 3.5 mph - N/A   Clear
11:53 AM 64.0 °F 21.0 °F 19% 30.28 in 10.0 mi WSW 3.5 mph - N/A   Clear
12:53 PM 66.0 °F 21.9 °F 19% 30.25 in 10.0 mi South 5.8 mph - N/A   Clear
1:53 PM 66.9 °F 21.9 °F 18% 30.21 in 10.0 mi SE 8.1 mph - N/A   Clear
2:53 PM 66.9 °F 21.9 °F 18% 30.20 in 10.0 mi SE 9.2 mph - N/A   Clear
3:53 PM 68.0 °F 21.9 °F 17% 30.19 in 10.0 mi SSE 6.9 mph - N/A   Clear
4:53 PM 66.9 °F 23.0 °F 19% 30.19 in 10.0 mi ESE 3.5 mph - N/A   Clear
5:53 PM 64.9 °F 23.0 °F 20% 30.20 in 10.0 mi ESE 3.5 mph - N/A   Clear
6:53 PM 64.0 °F 21.9 °F 20% 30.21 in 10.0 mi Variable 4.6 mph - N/A   Clear
7:53 PM 64.0 °F 23.0 °F 21% 30.21 in 10.0 mi Calm Calm - N/A   Clear
8:53 PM 62.1 °F 24.1 °F 23% 30.22 in 10.0 mi Calm Calm - N/A   Clear
9:53 PM 62.1 °F 28.0 °F 28% 30.22 in 10.0 mi NNW 3.5 mph - N/A   Clear
10:53 PM 60.1 °F 28.9 °F 31% 30.22 in 10.0 mi Calm Calm - N/A   Scattered Clouds
11:53 PM 59.0 °F 30.9 °F 35% 30.22 in 10.0 mi Calm Calm - N/A   Overcast